TimeEST,TemperatureF,Dew PointF,Humidity,Sea Level PressureIn,VisibilityMPH,Wind Direction,Wind SpeedMPH,Gust SpeedMPH,PrecipitationIn,Events,Conditions,WindDirDegrees,DateUTC
12:15 AM,42.8,41.0,93,30.00,10.0,West,3.5,-,N/A,,Clear,260,2013-02-16 05:15:00
12:35 AM,41.0,41.0,100,30.00,10.0,Calm,Calm,-,N/A,,Clear,0,2013-02-16 05:35:00
12:55 AM,46.4,42.8,87,30.01,10.0,NW,5.8,-,N/A,,Clear,310,2013-02-16 05:55:00
1:15 AM,46.4,37.4,71,30.01,10.0,NNW,6.9,-,N/A,,Clear,330,2013-02-16 06:15:00
1:35 AM,44.6,37.4,76,30.01,10.0,NNW,3.5,-,N/A,,Clear,330,2013-02-16 06:35:00
1:55 AM,44.6,37.4,76,30.00,10.0,NNW,3.5,-,N/A,,Clear,340,2013-02-16 06:55:00
2:15 AM,44.6,37.4,76,30.00,10.0,North,3.5,-,N/A,,Clear,350,2013-02-16 07:15:00
2:35 AM,44.6,37.4,76,29.99,10.0,Calm,Calm,-,N/A,,Clear,0,2013-02-16 07:35:00
2:55 AM,44.6,35.6,71,29.99,10.0,NNW,3.5,-,N/A,,Clear,330,2013-02-16 07:55:00
3:15 AM,44.6,37.4,76,29.98,10.0,Calm,Calm,-,N/A,,Clear,0,2013-02-16 08:15:00
3:35 AM,42.8,37.4,81,29.98,10.0,NNW,4.6,-,N/A,,Clear,330,2013-02-16 08:35:00
3:55 AM,44.6,37.4,76,29.98,10.0,NNW,5.8,-,N/A,,Clear,330,2013-02-16 08:55:00
4:15 AM,44.6,37.4,76,29.97,10.0,NNW,5.8,-,N/A,,Scattered Clouds,340,2013-02-16 09:15:00
4:35 AM,44.6,37.4,76,29.97,10.0,NNW,3.5,-,N/A,,Mostly Cloudy,330,2013-02-16 09:35:00
5:15 AM,44.6,37.4,76,29.97,10.0,NNW,3.5,-,N/A,,Overcast,330,2013-02-16 10:15:00
5:55 AM,42.8,37.4,81,29.96,10.0,NNW,4.6,-,N/A,,Overcast,330,2013-02-16 10:55:00
6:15 AM,42.8,39.2,87,29.96,10.0,NW,5.8,-,N/A,,Overcast,320,2013-02-16 11:15:00
6:35 AM,42.8,39.2,87,29.97,10.0,NW,6.9,-,N/A,,Overcast,320,2013-02-16 11:35:00
7:15 AM,42.8,37.4,81,29.98,10.0,NW,9.2,-,N/A,,Overcast,320,2013-02-16 12:15:00
7:55 AM,44.6,35.6,71,30.00,10.0,NNW,13.8,17.3,N/A,,Overcast,330,2013-02-16 12:55:00
8:15 AM,44.6,35.6,71,30.01,10.0,NW,15.0,24.2,N/A,,Overcast,320,2013-02-16 13:15:00
8:35 AM,42.8,35.6,76,30.03,10.0,NNW,16.1,21.9,N/A,,Drizzle,330,2013-02-16 13:35:00
8:55 AM,41.0,41.0,100,30.04,10.0,NNW,10.4,18.4,N/A,Rain,Light Rain,330,2013-02-16 13:55:00
9:15 AM,41.0,41.0,100,30.05,10.0,NNW,5.8,-,N/A,Rain,Light Rain,340,2013-02-16 14:15:00
9:35 AM,41.0,41.0,100,30.04,10.0,NNW,4.6,-,N/A,Rain,Rain,340,2013-02-16 14:35:00
9:55 AM,41.0,41.0,100,30.04,10.0,Calm,Calm,-,N/A,Rain,Light Rain,0,2013-02-16 14:55:00
10:15 AM,41.0,41.0,100,30.03,10.0,Calm,Calm,-,N/A,,Overcast,0,2013-02-16 15:15:00
10:35 AM,42.8,42.8,100,30.04,10.0,West,3.5,-,N/A,,Light Drizzle,280,2013-02-16 15:35:00
1:15 PM,48.2,30.2,50,29.97,10.0,WNW,16.1,21.9,N/A,,Mostly Cloudy,300,2013-02-16 18:15:00
1:35 PM,50.0,26.6,40,29.96,10.0,NW,15.0,24.2,N/A,,Scattered Clouds,310,2013-02-16 18:35:00
1:55 PM,50.0,23.0,35,29.95,10.0,NW,16.1,23.0,N/A,,Mostly Cloudy,320,2013-02-16 18:55:00
2:15 PM,50.0,23.0,35,29.95,10.0,WNW,11.5,21.9,N/A,,Mostly Cloudy,300,2013-02-16 19:15:00
2:35 PM,48.2,21.2,34,29.94,10.0,WNW,16.1,24.2,N/A,,Mostly Cloudy,300,2013-02-16 19:35:00
3:15 PM,50.0,17.6,28,29.95,10.0,NW,18.4,25.3,N/A,,Mostly Cloudy,310,2013-02-16 20:15:00
3:35 PM,46.4,10.4,23,29.95,10.0,NW,15.0,27.6,N/A,,Mostly Cloudy,320,2013-02-16 20:35:00
3:55 PM,50.0,10.4,20,29.95,10.0,NW,15.0,27.6,N/A,,Overcast,310,2013-02-16 20:55:00
4:15 PM,46.4,10.4,23,29.96,10.0,NW,17.3,24.2,N/A,,Mostly Cloudy,320,2013-02-16 21:15:00
4:35 PM,46.4,10.4,23,29.97,10.0,NW,19.6,26.5,N/A,,Overcast,310,2013-02-16 21:35:00
4:55 PM,46.4,6.8,20,29.98,10.0,NW,18.4,27.6,N/A,,Scattered Clouds,310,2013-02-16 21:55:00
5:15 PM,46.4,6.8,20,29.99,10.0,NW,21.9,27.6,N/A,,Scattered Clouds,310,2013-02-16 22:15:00
5:35 PM,46.4,5.0,18,30.00,10.0,WNW,15.0,28.8,N/A,,Mostly Cloudy,300,2013-02-16 22:35:00
5:55 PM,44.6,8.6,23,30.01,10.0,NNW,17.3,25.3,N/A,,Mostly Cloudy,330,2013-02-16 22:55:00
6:15 PM,42.8,8.6,25,30.02,10.0,NNW,15.0,25.3,N/A,,Overcast,330,2013-02-16 23:15:00
6:35 PM,42.8,8.6,25,30.03,10.0,NW,16.1,26.5,N/A,,Mostly Cloudy,320,2013-02-16 23:35:00
6:55 PM,42.8,6.8,23,30.05,10.0,NW,15.0,24.2,N/A,,Scattered Clouds,320,2013-02-16 23:55:00
7:15 PM,41.0,8.6,26,30.06,10.0,NW,15.0,19.6,N/A,,Clear,320,2013-02-17 00:15:00
7:55 PM,39.2,10.4,31,30.09,10.0,NNW,11.5,-,N/A,,Clear,330,2013-02-17 00:55:00
8:15 PM,39.2,10.4,31,30.10,10.0,NW,12.7,19.6,N/A,,Clear,320,2013-02-17 01:15:00
8:35 PM,37.4,8.6,30,30.11,10.0,NW,9.2,-,N/A,,Clear,320,2013-02-17 01:35:00
8:55 PM,37.4,8.6,30,30.12,10.0,NW,11.5,17.3,N/A,,Clear,320,2013-02-17 01:55:00
9:15 PM,37.4,10.4,33,30.13,10.0,NW,8.1,-,N/A,,Clear,310,2013-02-17 02:15:00
9:35 PM,37.4,8.6,30,30.14,10.0,NW,9.2,-,N/A,,Clear,320,2013-02-17 02:35:00
10:15 PM,35.6,10.4,35,30.15,10.0,NW,8.1,-,N/A,,Clear,320,2013-02-17 03:15:00
10:35 PM,33.8,12.2,41,30.16,10.0,NW,4.6,-,N/A,,Clear,320,2013-02-17 03:35:00
10:55 PM,33.8,12.2,41,30.16,10.0,NNW,3.5,-,N/A,,Clear,330,2013-02-17 03:55:00
11:15 PM,33.8,12.2,41,30.16,10.0,NW,4.6,-,N/A,,Clear,310,2013-02-17 04:15:00
11:35 PM,33.8,14.0,44,30.17,10.0,NW,3.5,-,N/A,,Clear,310,2013-02-17 04:35:00
11:55 PM,32.0,14.0,48,30.18,10.0,WNW,3.5,-,N/A,,Clear,290,2013-02-17 04:55:00